START_TIME,STEP,MOV.,A46,t_acc.,A13,t_acc.,M47,t_acc.,A17,t_acc.,A28,t_acc.,M38,t_acc.
1979-07-29 18:00:24.590 ,0,1,,0,18.,4.8,1.,4.8,,0,0.,4.8,2.,4.8
1979-07-29 18:00:29.390 ,0,1,,0,6.,4.8,2.,4.8,,0,0.,4.8,2.,4.8
1979-07-29 18:00:34.190 ,0,1,,0,1.,4.8,0.,4.8,,0,0.,4.8,2.,4.8
1979-07-29 18:00:38.990 ,0,1,,0,0.,4.8,0.,4.8,,0,0.,4.8,0.,4.8
1979-07-29 18:00:43.790 ,0,1,,0,0.,4.8,0.,4.8,,0,0.,4.8,0.,4.8
1979-07-29 18:00:48.590 ,4,1,,0,0.,4.8,0.,4.8,,0,0.,4.8,0.,4.8
1979-07-29 18:00:53.390 ,4,1,,0,0.,4.8,0.,4.8,,0,0.,4.8,2.,4.8
1979-07-29 18:00:58.190 ,4,1,,0,2.,4.8,0.,4.8,,0,0.,4.8,8.,4.8
1979-07-29 18:01:02.990 ,4,1,,0,6.,4.8,1.,4.8,,0,0.,4.8,4.,4.8
1979-07-29 18:01:07.790 ,4,1,,0,5.,4.8,0.,4.8,,0,0.,4.8,3.,4.8
1979-07-29 18:01:12.590 ,7,1,,0,4.,4.8,1.,4.8,,0,0.,4.8,1.,4.8
1979-07-29 18:01:17.390 ,7,1,,0,7.,4.8,1.,4.8,,0,0.,4.8,1.,4.8
1979-07-29 18:01:22.190 ,7,1,,0,3.,4.8,1.,4.8,,0,0.,4.8,0.,4.8
1979-07-29 18:01:26.990 ,7,1,,0,0.,4.8,0.,4.8,,0,0.,4.8,0.,4.8
1979-07-29 18:01:31.790 ,7,1,,0,0.,4.8,0.,4.8,,0,0.,4.8,0.,4.8
1979-07-29 18:01:36.590 ,3,1,,0,0.,4.8,0.,4.8,,0,0.,4.8,1.,4.8
1979-07-29 18:01:41.390 ,3,1,,0,0.,4.8,0.,4.8,,0,0.,4.8,1.,4.8
1979-07-29 18:01:46.190 ,3,1,,0,0.,4.8,0.,4.8,,0,0.,4.8,2.,4.8
1979-07-29 18:01:50.990 ,3,1,,0,7.,4.8,0.,4.8,,0,0.,4.8,1.,4.8
1979-07-29 18:01:55.790 ,3,1,,0,14.,4.8,2.,4.8,,0,0.,4.8,5.,4.8
1979-07-29 18:02:00.590 ,0,1,,0,11.,4.8,2.,4.8,,0,0.,4.8,6.,4.8
1979-07-29 18:02:05.390 ,0,1,,0,3.,4.8,0.,4.8,,0,0.,4.8,2.,4.8
1979-07-29 18:02:10.190 ,0,1,,0,3.,4.8,0.,4.8,,0,0.,4.8,1.,4.8
1979-07-29 18:02:14.990 ,0,1,,0,0.,4.8,0.,4.8,,0,0.,4.8,0.,4.8
1979-07-29 18:02:19.790 ,0,1,,0,0.,4.8,0.,4.8,,0,0.,4.8,0.,4.8
1979-07-29 18:02:24.590 ,4,1,,0,0.,4.8,0.,4.8,,0,0.,4.8,0.,4.8
1979-07-29 18:02:29.390 ,4,1,,0,0.,4.8,0.,4.8,,0,0.,4.8,1.,4.8
1979-07-29 18:02:34.190 ,4,1,,0,1.,4.8,0.,4.8,,0,0.,4.8,3.,4.8
1979-07-29 18:02:38.990 ,4,1,,0,6.,4.8,0.,4.8,,0,0.,4.8,2.,4.8
1979-07-29 18:02:43.790 ,4,1,,0,12.,4.8,2.,4.8,,0,0.,4.8,1.,4.8
1979-07-29 18:02:48.590 ,7,1,,0,11.,4.8,1.,4.8,,0,0.,4.8,2.,4.8
1979-07-29 18:02:53.390 ,7,1,,0,6.,4.8,0.,4.8,,0,0.,4.8,2.,4.8
1979-07-29 18:02:58.190 ,7,1,,0,6.,4.8,2.,4.8,,0,0.,4.8,4.,4.8
1979-07-29 18:03:02.990 ,7,1,,0,0.,4.8,0.,4.8,,0,0.,4.8,0.,4.8
1979-07-29 18:03:07.790 ,7,1,,0,0.,4.8,0.,4.8,,0,0.,4.8,0.,4.8
1979-07-29 18:03:12.590 ,3,1,,0,0.,4.8,0.,4.8,,0,0.,4.8,0.,4.8
1979-07-29 18:03:17.390 ,3,1,,0,0.,4.8,0.,4.8,,0,0.,4.8,2.,4.8
1979-07-29 18:03:22.190 ,3,1,,0,1.,4.8,0.,4.8,,0,0.,4.8,4.,4.8
1979-07-29 18:03:26.990 ,3,1,,0,6.,4.8,0.,4.8,,0,0.,4.8,2.,4.8
1979-07-29 18:03:31.790 ,3,1,,0,12.,4.8,1.,4.8,,0,0.,4.8,0.,4.8
1979-07-29 18:03:36.590 ,0,1,,0,6.,4.8,1.,4.8,,0,0.,4.8,1.,4.8
1979-07-29 18:03:41.390 ,0,1,,0,8.,4.8,0.,4.8,,0,0.,4.8,0.,4.8
1979-07-29 18:03:46.190 ,0,1,,0,1.,4.8,0.,4.8,,0,0.,4.8,0.,4.8
1979-07-29 18:03:50.990 ,0,1,,0,0.,4.8,0.,4.8,,0,0.,4.8,1.,4.8
1979-07-29 18:03:55.790 ,0,1,,0,0.,4.8,0.,4.8,,0,0.,4.8,0.,4.8
1979-07-29 18:04:00.590 ,4,1,,0,0.,4.8,0.,4.8,,0,0.,4.8,0.,4.8
1979-07-29 18:04:05.390 ,4,1,,0,0.,4.8,0.,4.8,,0,0.,4.8,3.,4.8
1979-07-29 18:04:10.190 ,4,1,,0,1.,4.8,0.,4.8,,0,0.,4.8,6.,4.8
1979-07-29 18:04:14.990 ,4,1,,0,6.,4.8,0.,4.8,,0,0.,4.8,7.,4.8
1979-07-29 18:04:19.790 ,4,1,,0,4.,4.8,0.,4.8,,0,0.,4.8,1.,4.8
1979-07-29 18:04:24.590 ,7,1,,0,13.,4.8,0.,4.8,,0,0.,4.8,1.,4.8
1979-07-29 18:04:29.390 ,7,1,,0,7.,4.8,0.,4.8,,0,0.,4.8,1.,4.8
1979-07-29 18:04:34.190 ,7,1,,0,7.,4.8,0.,4.8,,0,0.,4.8,2.,4.8
1979-07-29 18:04:38.990 ,7,1,,0,0.,4.8,0.,4.8,,0,0.,4.8,0.,4.8
1979-07-29 18:04:43.790 ,7,1,,0,0.,4.8,0.,4.8,,0,0.,4.8,0.,4.8
1979-07-29 18:04:48.590 ,3,1,,0,0.,4.8,0.,4.8,,0,0.,4.8,0.,4.8
1979-07-29 18:04:53.390 ,3,1,,0,0.,4.8,0.,4.8,,0,0.,4.8,1.,4.8
1979-07-29 18:04:58.190 ,3,1,,0,1.,4.8,0.,4.8,,0,0.,4.8,0.,4.8
1979-07-29 18:05:02.990 ,3,1,,0,6.,4.8,0.,4.8,,0,0.,4.8,1.,4.8
1979-07-29 18:05:07.790 ,3,1,,0,10.,4.8,0.,4.8,,0,0.,4.8,3.,4.8
1979-07-29 18:05:12.590 ,0,1,,0,7.,4.8,2.,4.8,,0,0.,4.8,2.,4.8
1979-07-29 18:05:17.390 ,0,1,,0,8.,4.8,0.,4.8,,0,0.,4.8,2.,4.8
1979-07-29 18:05:22.190 ,0,1,,0,1.,4.8,0.,4.8,,0,0.,4.8,0.,4.8
1979-07-29 18:05:26.990 ,0,1,,0,1.,4.8,0.,4.8,,0,0.,4.8,0.,4.8
1979-07-29 18:05:31.790 ,0,1,,0,0.,4.8,0.,4.8,,0,0.,4.8,0.,4.8
1979-07-29 18:05:36.590 ,0,0,,0,0.,4.8,0.,4.8,,0,0.,4.8,0.,4.8
1979-07-29 18:05:41.390 ,0,0,,0,0.,4.8,0.,4.8,,0,0.,4.8,0.,4.8
1979-07-29 18:05:46.190 ,0,0,,0,1.,4.8,0.,4.8,,0,0.,4.8,1.,4.8
1979-07-29 18:05:50.990 ,0,0,,0,11.,4.8,0.,4.8,,0,0.,4.8,2.,4.8
1979-07-29 18:05:55.790 ,0,0,,0,6.,4.8,0.,4.8,,0,0.,4.8,0.,4.8
1979-07-29 18:06:00.590 ,0,0,,0,3.,4.8,0.,4.8,,0,0.,4.8,1.,4.8
1979-07-29 18:06:05.390 ,0,0,,0,9.,4.8,0.,4.8,,0,0.,4.8,2.,4.8
1979-07-29 18:06:10.190 ,0,0,,0,4.,4.8,1.,4.8,,0,0.,4.8,2.,4.8
1979-07-29 18:06:14.990 ,0,0,,0,0.,4.8,0.,4.8,,0,0.,4.8,0.,4.8
1979-07-29 18:06:19.790 ,0,0,,0,0.,4.8,0.,4.8,,0,0.,4.8,0.,4.8
1979-07-29 18:06:24.590 ,5,0,,0,0.,4.8,0.,4.8,,0,0.,4.8,2.,4.8
1979-07-29 18:06:29.390 ,5,0,,0,0.,4.8,0.,4.8,,0,0.,4.8,1.,4.8
1979-07-29 18:06:34.190 ,5,0,,0,1.,4.8,0.,4.8,,0,0.,4.8,1.,4.8
1979-07-29 18:06:38.990 ,5,0,,0,6.,4.8,2.,4.8,,0,0.,4.8,3.,4.8
1979-07-29 18:06:43.790 ,5,0,,0,14.,4.8,3.,4.8,,0,0.,4.8,2.,4.8
1979-07-29 18:06:48.590 ,5,0,,0,8.,4.8,0.,4.8,,0,0.,4.8,4.,4.8
1979-07-29 18:06:53.390 ,5,0,,0,14.,4.8,1.,4.8,,0,0.,4.8,2.,4.8
1979-07-29 18:06:58.190 ,5,0,,0,7.,4.8,0.,4.8,,0,0.,4.8,3.,4.8
1979-07-29 18:07:02.990 ,5,0,,0,0.,4.8,0.,4.8,,0,0.,4.8,2.,4.8
1979-07-29 18:07:07.790 ,5,0,,0,0.,4.8,1.,4.8,,0,0.,4.8,1.,4.8
1979-07-29 18:07:12.590 ,4,0,,0,0.,4.8,0.,4.8,,0,0.,4.8,2.,4.8
1979-07-29 18:07:17.390 ,4,0,,0,0.,4.8,0.,4.8,,0,0.,4.8,2.,4.8
1979-07-29 18:07:22.190 ,4,0,,0,1.,4.8,0.,4.8,,0,0.,4.8,0.,4.8
1979-07-29 18:07:26.990 ,4,0,,0,5.,4.8,1.,4.8,,0,0.,4.8,0.,4.8
1979-07-29 18:07:31.790 ,4,0,,0,8.,4.8,0.,4.8,,0,0.,4.8,2.,4.8
1979-07-29 18:07:36.590 ,4,0,,0,12.,4.8,0.,4.8,,0,0.,4.8,3.,4.8
1979-07-29 18:07:41.390 ,4,0,,0,3.,4.8,1.,4.8,,0,0.,4.8,1.,4.8
1979-07-29 18:07:46.190 ,4,0,,0,10.,4.8,0.,4.8,,0,0.,4.8,2.,4.8
1979-07-29 18:07:50.990 ,4,0,,0,0.,4.8,0.,4.8,,0,0.,4.8,1.,4.8
1979-07-29 18:07:55.790 ,4,0,,0,0.,4.8,0.,4.8,,0,0.,4.8,1.,4.8
1979-07-29 18:08:00.590 ,3,0,,0,0.,4.8,0.,4.8,,0,0.,4.8,1.,4.8
1979-07-29 18:08:05.390 ,3,0,,0,0.,4.8,0.,4.8,,0,0.,4.8,2.,4.8
1979-07-29 18:08:10.190 ,3,0,,0,1.,4.8,0.,4.8,,0,0.,4.8,3.,4.8
1979-07-29 18:08:14.990 ,3,0,,0,7.,4.8,0.,4.8,,0,0.,4.8,4.,4.8
1979-07-29 18:08:19.790 ,3,0,,0,5.,4.8,0.,4.8,,0,0.,4.8,2.,4.8
1979-07-29 18:08:24.590 ,3,0,,0,7.,4.8,0.,4.8,,0,0.,4.8,4.,4.8
1979-07-29 18:08:29.390 ,3,0,,0,8.,4.8,0.,4.8,,0,0.,4.8,3.,4.8
1979-07-29 18:08:34.190 ,3,0,,0,7.,4.8,2.,4.8,,0,0.,4.8,4.,4.8
1979-07-29 18:08:38.990 ,3,0,,0,0.,4.8,0.,4.8,,0,0.,4.8,3.,4.8
1979-07-29 18:08:43.790 ,3,0,,0,0.,4.8,0.,4.8,,0,0.,4.8,2.,4.8
1979-07-29 18:08:48.590 ,2,0,,0,0.,4.8,0.,4.8,,0,0.,4.8,2.,4.8
1979-07-29 18:08:53.390 ,2,0,,0,0.,4.8,0.,4.8,,0,0.,4.8,2.,4.8
1979-07-29 18:08:58.190 ,2,0,,0,2.,4.8,0.,4.8,,0,1.,4.8,1.,4.8
1979-07-29 18:09:02.990 ,2,0,,0,7.,4.8,0.,4.8,,0,0.,4.8,5.,4.8
1979-07-29 18:09:07.790 ,2,0,,0,10.,4.8,1.,4.8,,0,0.,4.8,1.,4.8
1979-07-29 18:09:12.590 ,2,0,,0,7.,4.8,1.,4.8,,0,0.,4.8,0.,4.8
1979-07-29 18:09:17.390 ,2,0,,0,5.,4.8,0.,4.8,,0,0.,4.8,2.,4.8
1979-07-29 18:09:22.190 ,2,0,,0,7.,4.8,0.,4.8,,0,0.,4.8,4.,4.8
1979-07-29 18:09:26.990 ,2,0,,0,0.,4.8,0.,4.8,,0,0.,4.8,0.,4.8
1979-07-29 18:09:31.790 ,2,0,,0,0.,4.8,0.,4.8,,0,0.,4.8,3.,4.8
1979-07-29 18:09:36.590 ,1,0,,0,0.,4.8,0.,4.8,,0,0.,4.8,0.,4.8
1979-07-29 18:09:41.390 ,1,0,,0,0.,4.8,0.,4.8,,0,0.,4.8,1.,4.8
1979-07-29 18:09:46.190 ,1,0,,0,1.,4.8,0.,4.8,,0,0.,4.8,1.,4.8
1979-07-29 18:09:50.990 ,1,0,,0,5.,4.8,0.,4.8,,0,1.,4.8,1.,4.8
1979-07-29 18:09:55.790 ,1,0,,0,1.,4.8,0.,4.8,,0,0.,4.8,1.,4.8
1979-07-29 18:10:00.590 ,1,0,,0,6.,4.8,1.,4.8,,0,0.,4.8,0.,4.8
1979-07-29 18:10:05.390 ,1,0,,0,2.,4.8,0.,4.8,,0,0.,4.8,0.,4.8
1979-07-29 18:10:10.190 ,1,0,,0,3.,4.8,0.,4.8,,0,0.,4.8,0.,4.8
1979-07-29 18:10:14.990 ,1,0,,0,0.,4.8,0.,4.8,,0,0.,4.8,1.,4.8
1979-07-29 18:10:19.790 ,1,0,,0,0.,4.8,0.,4.8,,0,0.,4.8,0.,4.8
1979-07-29 18:10:24.590 ,0,0,,0,0.,4.8,0.,4.8,,0,0.,4.8,0.,4.8
1979-07-29 18:10:29.390 ,0,0,,0,0.,4.8,0.,4.8,,0,0.,4.8,0.,4.8
1979-07-29 18:10:34.190 ,0,0,,0,2.,4.8,0.,4.8,,0,0.,4.8,0.,4.8
1979-07-29 18:10:38.990 ,0,0,,0,3.,4.8,1.,4.8,,0,0.,4.8,0.,4.8
1979-07-29 18:10:43.790 ,0,0,,0,0.,4.8,0.,4.8,,0,0.,4.8,0.,4.8
1979-07-29 18:10:48.590 ,0,0,,0,0.,4.8,0.,4.8,,0,0.,4.8,0.,4.8
1979-07-29 18:10:53.390 ,0,0,,0,0.,4.8,0.,4.8,,0,0.,4.8,0.,4.8
1979-07-29 18:10:58.190 ,0,0,,0,2.,4.8,0.,4.8,,0,0.,4.8,0.,4.8
1979-07-29 18:11:02.990 ,0,0,,0,0.,4.8,0.,4.8,,0,0.,4.8,0.,4.8
1979-07-29 18:11:07.790 ,0,0,,0,0.,4.8,0.,4.8,,0,1.,4.8,0.,4.8
1979-07-29 18:11:12.590 ,0,0,,0,0.,4.8,0.,4.8,,0,0.,4.8,1.,4.8
1979-07-29 18:11:17.390 ,0,0,,0,0.,4.8,0.,4.8,,0,0.,4.8,0.,4.8
1979-07-29 18:11:22.190 ,0,0,,0,1.,4.8,0.,4.8,,0,0.,4.8,0.,4.8
1979-07-29 18:11:26.990 ,0,0,,0,3.,4.8,0.,4.8,,0,0.,4.8,1.,4.8
1979-07-29 18:11:31.790 ,0,0,,0,2.,4.8,0.,4.8,,0,0.,4.8,0.,4.8
1979-07-29 18:11:36.590 ,0,0,,0,1.,4.8,0.,4.8,,0,0.,4.8,1.,4.8
1979-07-29 18:11:41.390 ,0,0,,0,0.,4.8,0.,4.8,,0,0.,4.8,0.,4.8
1979-07-29 18:11:46.190 ,0,0,,0,0.,4.8,0.,4.8,,0,0.,4.8,0.,4.8
1979-07-29 18:11:50.990 ,0,0,,0,1.,4.8,0.,4.8,,0,0.,4.8,1.,4.8
1979-07-29 18:11:55.790 ,0,0,,0,0.,4.8,0.,4.8,,0,0.,4.8,0.,4.8
1979-07-29 18:12:00.590 ,1,0,,0,0.,4.8,0.,4.8,,0,0.,4.8,1.,4.8
1979-07-29 18:12:05.390 ,1,0,,0,0.,4.8,0.,4.8,,0,0.,4.8,0.,4.8
1979-07-29 18:12:10.190 ,1,0,,0,0.,4.8,0.,4.8,,0,0.,4.8,0.,4.8
1979-07-29 18:12:14.990 ,1,0,,0,0.,4.8,0.,4.8,,0,0.,4.8,0.,4.8
1979-07-29 18:12:19.790 ,1,0,,0,1.,4.8,0.,4.8,,0,0.,4.8,1.,4.8
1979-07-29 18:12:24.590 ,1,0,,0,0.,4.8,0.,4.8,,0,0.,4.8,0.,4.8
1979-07-29 18:12:29.390 ,1,0,,0,2.,4.8,0.,4.8,,0,0.,4.8,1.,4.8
1979-07-29 18:12:34.190 ,1,0,,0,2.,4.8,0.,4.8,,0,0.,4.8,1.,4.8
1979-07-29 18:12:38.990 ,1,0,,0,0.,4.8,0.,4.8,,0,0.,4.8,0.,4.8
1979-07-29 18:12:43.790 ,1,0,,0,0.,4.8,0.,4.8,,0,0.,4.8,0.,4.8
1979-07-29 18:12:48.590 ,2,0,,0,0.,4.8,0.,4.8,,0,0.,4.8,1.,4.8
1979-07-29 18:12:53.390 ,2,0,,0,0.,4.8,0.,4.8,,0,0.,4.8,0.,4.8
1979-07-29 18:12:58.190 ,2,0,,0,1.,4.8,0.,4.8,,0,0.,4.8,0.,4.8
1979-07-29 18:13:02.990 ,2,0,,0,6.,4.8,0.,4.8,,0,0.,4.8,2.,4.8
1979-07-29 18:13:07.790 ,2,0,,0,6.,4.8,0.,4.8,,0,0.,4.8,2.,4.8
1979-07-29 18:13:12.590 ,2,0,,0,3.,4.8,0.,4.8,,0,1.,4.8,1.,4.8
1979-07-29 18:13:17.390 ,2,0,,0,7.,4.8,1.,4.8,,0,1.,4.8,1.,4.8
1979-07-29 18:13:22.190 ,2,0,,0,3.,4.8,2.,4.8,,0,0.,4.8,3.,4.8
1979-07-29 18:13:26.990 ,2,0,,0,0.,4.8,0.,4.8,,0,0.,4.8,4.,4.8
1979-07-29 18:13:31.790 ,2,0,,0,0.,4.8,0.,4.8,,0,0.,4.8,0.,4.8
1979-07-29 18:13:36.590 ,3,0,,0,0.,4.8,0.,4.8,,0,0.,4.8,3.,4.8
1979-07-29 18:13:41.390 ,3,0,,0,0.,4.8,0.,4.8,,0,0.,4.8,3.,4.8
1979-07-29 18:13:46.190 ,3,0,,0,1.,4.8,0.,4.8,,0,0.,4.8,2.,4.8
1979-07-29 18:13:50.990 ,3,0,,0,9.,4.8,1.,4.8,,0,0.,4.8,3.,4.8
1979-07-29 18:13:55.790 ,3,0,,0,7.,4.8,0.,4.8,,0,0.,4.8,4.,4.8
1979-07-29 18:14:00.590 ,3,0,,0,5.,4.8,0.,4.8,,0,0.,4.8,2.,4.8
1979-07-29 18:14:05.390 ,3,0,,0,8.,4.8,0.,4.8,,0,0.,4.8,5.,4.8
1979-07-29 18:14:10.190 ,3,0,,0,5.,4.8,0.,4.8,,0,0.,4.8,6.,4.8
1979-07-29 18:14:14.990 ,3,0,,0,0.,4.8,0.,4.8,,0,0.,4.8,5.,4.8
1979-07-29 18:14:19.790 ,3,0,,0,0.,4.8,0.,4.8,,0,0.,4.8,5.,4.8
1979-07-29 18:14:24.590 ,4,0,,0,0.,4.8,0.,4.8,,0,0.,4.8,1.,4.8
1979-07-29 18:14:29.390 ,4,0,,0,0.,4.8,0.,4.8,,0,0.,4.8,4.,4.8
1979-07-29 18:14:34.190 ,4,0,,0,1.,4.8,0.,4.8,,0,0.,4.8,1.,4.8
1979-07-29 18:14:38.990 ,4,0,,0,13.,4.8,0.,4.8,,0,0.,4.8,2.,4.8
1979-07-29 18:14:43.790 ,4,0,,0,2.,4.8,0.,4.8,,0,0.,4.8,3.,4.8
1979-07-29 18:14:48.590 ,4,0,,0,9.,4.8,0.,4.8,,0,0.,4.8,0.,4.8
1979-07-29 18:14:53.390 ,4,0,,0,15.,4.8,1.,4.8,,0,0.,4.8,3.,4.8
1979-07-29 18:14:58.190 ,4,0,,0,8.,4.8,0.,4.8,,0,0.,4.8,4.,4.8
1979-07-29 18:15:02.990 ,4,0,,0,0.,4.8,0.,4.8,,0,0.,4.8,1.,4.8
1979-07-29 18:15:07.790 ,4,0,,0,0.,4.8,0.,4.8,,0,0.,4.8,0.,4.8
1979-07-29 18:15:12.590 ,5,0,,0,0.,4.8,0.,4.8,,0,0.,4.8,1.,4.8
1979-07-29 18:15:17.390 ,5,0,,0,0.,4.8,0.,4.8,,0,1.,4.8,1.,4.8
1979-07-29 18:15:22.190 ,5,0,,0,2.,4.8,1.,4.8,,0,0.,4.8,2.,4.8
1979-07-29 18:15:26.990 ,5,0,,0,9.,4.8,1.,4.8,,0,0.,4.8,1.,4.8
1979-07-29 18:15:31.790 ,5,0,,0,9.,4.8,0.,4.8,,0,0.,4.8,0.,4.8
1979-07-29 18:15:36.590 ,5,0,,0,10.,4.8,2.,4.8,,0,0.,4.8,0.,4.8
1979-07-29 18:15:41.390 ,5,0,,0,7.,4.8,0.,4.8,,0,0.,4.8,3.,4.8
1979-07-29 18:15:46.190 ,5,0,,0,5.,4.8,0.,4.8,,0,0.,4.8,1.,4.8
1979-07-29 18:15:50.990 ,5,0,,0,0.,4.8,0.,4.8,,0,0.,4.8,1.,4.8
1979-07-29 18:15:55.790 ,5,0,,0,0.,4.8,0.,4.8,,0,0.,4.8,4.,4.8
1979-07-29 18:16:00.590 ,6,0,,0,0.,4.8,0.,4.8,,0,0.,4.8,0.,4.8
1979-07-29 18:16:05.390 ,6,0,,0,0.,4.8,0.,4.8,,0,0.,4.8,1.,4.8
1979-07-29 18:16:10.190 ,6,0,,0,3.,4.8,1.,4.8,,0,0.,4.8,2.,4.8
1979-07-29 18:16:14.990 ,6,0,,0,8.,4.8,1.,4.8,,0,0.,4.8,1.,4.8
1979-07-29 18:16:19.790 ,6,0,,0,10.,4.8,2.,4.8,,0,0.,4.8,2.,4.8
1979-07-29 18:16:24.590 ,6,0,,0,14.,4.8,3.,4.8,,0,0.,4.8,2.,4.8
1979-07-29 18:16:29.390 ,6,0,,0,5.,4.8,1.,4.8,,0,0.,4.8,4.,4.8
1979-07-29 18:16:34.190 ,6,0,,0,6.,4.8,0.,4.8,,0,0.,4.8,2.,4.8
1979-07-29 18:16:38.990 ,6,0,,0,0.,4.8,0.,4.8,,0,0.,4.8,2.,4.8
1979-07-29 18:16:43.790 ,6,0,,0,0.,4.8,0.,4.8,,0,1.,4.8,1.,4.8
1979-07-29 18:16:48.590 ,7,0,,0,0.,4.8,0.,4.8,,0,0.,4.8,0.,4.8
1979-07-29 18:16:53.390 ,7,0,,0,0.,4.8,0.,4.8,,0,0.,4.8,0.,4.8
1979-07-29 18:16:58.190 ,7,0,,0,1.,4.8,0.,4.8,,0,0.,4.8,0.,4.8
1979-07-29 18:17:02.990 ,7,0,,0,13.,4.8,0.,4.8,,0,0.,4.8,0.,4.8
1979-07-29 18:17:07.790 ,7,0,,0,12.,4.8,0.,4.8,,0,0.,4.8,0.,4.8
1979-07-29 18:17:12.590 ,7,0,,0,7.,4.8,0.,4.8,,0,0.,4.8,0.,4.8
1979-07-29 18:17:17.390 ,7,0,,0,12.,4.8,0.,4.8,,0,0.,4.8,0.,4.8
1979-07-29 18:17:22.190 ,7,0,,0,4.,4.8,0.,4.8,,0,0.,4.8,0.,4.8
1979-07-29 18:17:26.990 ,7,0,,0,0.,4.8,0.,4.8,,0,0.,4.8,0.,4.8
1979-07-29 18:17:31.790 ,7,0,,0,0.,4.8,0.,4.8,,0,0.,4.8,0.,4.8
1979-07-29 18:17:36.590 ,7,0,,0,0.,4.8,0.,4.8,,0,0.,4.8,0.,4.8
1979-07-29 18:17:41.390 ,7,0,,0,0.,4.8,0.,4.8,,0,0.,4.8,0.,4.8
1979-07-29 18:17:46.190 ,7,0,,0,1.,4.8,0.,4.8,,0,0.,4.8,0.,4.8
1979-07-29 18:17:50.990 ,7,0,,0,10.,4.8,0.,4.8,,0,0.,4.8,0.,4.8
1979-07-29 18:17:55.790 ,7,0,,0,7.,4.8,0.,4.8,,0,0.,4.8,0.,4.8
1979-07-29 18:18:00.590 ,7,0,,0,8.,4.8,0.,4.8,,0,0.,4.8,0.,4.8
1979-07-29 18:18:05.390 ,7,0,,0,10.,4.8,0.,4.8,,0,0.,4.8,0.,4.8
1979-07-29 18:18:10.190 ,7,0,,0,6.,4.8,0.,4.8,,0,0.,4.8,0.,4.8
1979-07-29 18:18:14.990 ,7,0,,0,0.,4.8,0.,4.8,,0,0.,4.8,0.,4.8
1979-07-29 18:18:19.790 ,7,0,,0,0.,4.8,0.,4.8,,0,0.,4.8,0.,4.8
1979-07-29 18:18:24.590 ,6,0,,0,0.,4.8,0.,4.8,,0,0.,4.8,0.,4.8
1979-07-29 18:18:29.390 ,6,0,,0,0.,4.8,0.,4.8,,0,0.,4.8,1.,4.8
1979-07-29 18:18:34.190 ,6,0,,0,5.,4.8,1.,4.8,,0,0.,4.8,3.,4.8
1979-07-29 18:18:38.990 ,6,0,,0,7.,4.8,0.,4.8,,0,0.,4.8,1.,4.8
1979-07-29 18:18:43.790 ,6,0,,0,9.,4.8,3.,4.8,,0,0.,4.8,5.,4.8
1979-07-29 18:18:48.590 ,6,0,,0,10.,4.8,0.,4.8,,0,0.,4.8,3.,4.8
1979-07-29 18:18:53.390 ,6,0,,0,7.,4.8,0.,4.8,,0,0.,4.8,1.,4.8
1979-07-29 18:18:58.190 ,6,0,,0,4.,4.8,0.,4.8,,0,0.,4.8,1.,4.8
1979-07-29 18:19:02.990 ,6,0,,0,0.,4.8,0.,4.8,,0,0.,4.8,0.,4.8
1979-07-29 18:19:07.790 ,6,0,,0,0.,4.8,0.,4.8,,0,0.,4.8,2.,4.8
1979-07-29 18:19:12.590 ,5,0,,0,0.,4.8,0.,4.8,,0,0.,4.8,0.,4.8
1979-07-29 18:19:17.390 ,5,0,,0,0.,4.8,0.,4.8,,0,0.,4.8,3.,4.8
1979-07-29 18:19:22.190 ,5,0,,0,3.,4.8,0.,4.8,,0,0.,4.8,2.,4.8
1979-07-29 18:19:26.990 ,5,0,,0,8.,4.8,1.,4.8,,0,0.,4.8,0.,4.8
1979-07-29 18:19:31.790 ,5,0,,0,7.,4.8,0.,4.8,,0,0.,4.8,3.,4.8
1979-07-29 18:19:36.590 ,5,0,,0,9.,4.8,1.,4.8,,0,0.,4.8,4.,4.8
1979-07-29 18:19:41.390 ,5,0,,0,3.,4.8,0.,4.8,,0,0.,4.8,1.,4.8
1979-07-29 18:19:46.190 ,5,0,,0,7.,4.8,1.,4.8,,0,0.,4.8,1.,4.8
1979-07-29 18:19:50.990 ,5,0,,0,0.,4.8,0.,4.8,,0,0.,4.8,0.,4.8
1979-07-29 18:19:55.790 ,5,0,,0,0.,4.8,0.,4.8,,0,0.,4.8,2.,4.8
1979-07-29 18:20:00.590 ,4,0,,0,0.,4.8,0.,4.8,,0,0.,4.8,0.,4.8
1979-07-29 18:20:05.390 ,4,0,,0,0.,4.8,0.,4.8,,0,0.,4.8,2.,4.8
1979-07-29 18:20:10.190 ,4,0,,0,1.,4.8,0.,4.8,,0,0.,4.8,4.,4.8
1979-07-29 18:20:14.990 ,4,0,,0,8.,4.8,2.,4.8,,0,0.,4.8,4.,4.8
1979-07-29 18:20:19.790 ,4,0,,0,6.,4.8,0.,4.8,,0,0.,4.8,4.,4.8
1979-07-29 18:20:24.590 ,4,0,,0,5.,4.8,1.,4.8,,0,0.,4.8,4.,4.8
1979-07-29 18:20:29.390 ,4,0,,0,8.,4.8,1.,4.8,,0,0.,4.8,0.,4.8
1979-07-29 18:20:34.190 ,4,0,,0,6.,4.8,0.,4.8,,0,0.,4.8,0.,4.8
1979-07-29 18:20:38.990 ,4,0,,0,0.,4.8,0.,4.8,,0,0.,4.8,2.,4.8
1979-07-29 18:20:43.790 ,4,0,,0,0.,4.8,0.,4.8,,0,0.,4.8,2.,4.8
1979-07-29 18:20:48.590 ,3,0,,0,0.,4.8,0.,4.8,,0,0.,4.8,2.,4.8
1979-07-29 18:20:53.390 ,3,0,,0,0.,4.8,0.,4.8,,0,0.,4.8,2.,4.8
1979-07-29 18:20:58.190 ,3,0,,0,0.,4.8,0.,4.8,,0,0.,4.8,1.,4.8
1979-07-29 18:21:02.990 ,3,0,,0,6.,4.8,0.,4.8,,0,0.,4.8,5.,4.8
1979-07-29 18:21:07.790 ,3,0,,0,10.,4.8,0.,4.8,,0,0.,4.8,3.,4.8
1979-07-29 18:21:12.590 ,3,0,,0,8.,4.8,0.,4.8,,0,0.,4.8,2.,4.8
1979-07-29 18:21:17.390 ,3,0,,0,4.,4.8,0.,4.8,,0,0.,4.8,0.,4.8
1979-07-29 18:21:22.190 ,3,0,,0,7.,4.8,0.,4.8,,0,0.,4.8,4.,4.8
1979-07-29 18:21:26.990 ,3,0,,0,0.,4.8,0.,4.8,,0,0.,4.8,1.,4.8
1979-07-29 18:21:31.790 ,3,0,,0,0.,4.8,0.,4.8,,0,0.,4.8,2.,4.8
1979-07-29 18:21:36.590 ,2,0,,0,0.,4.8,1.,4.8,,0,0.,4.8,4.,4.8
1979-07-29 18:21:41.390 ,2,0,,0,0.,4.8,1.,4.8,,0,0.,4.8,8.,4.8
1979-07-29 18:21:46.190 ,2,0,,0,2.,4.8,0.,4.8,,0,0.,4.8,2.,4.8
1979-07-29 18:21:50.990 ,2,0,,0,4.,4.8,0.,4.8,,0,0.,4.8,1.,4.8
1979-07-29 18:21:55.790 ,2,0,,0,4.,4.8,0.,4.8,,0,0.,4.8,1.,4.8
1979-07-29 18:22:00.590 ,2,0,,0,5.,4.8,0.,4.8,,0,0.,4.8,1.,4.8
1979-07-29 18:22:05.390 ,2,0,,0,4.,4.8,0.,4.8,,0,0.,4.8,2.,4.8
1979-07-29 18:22:10.190 ,2,0,,0,5.,4.8,0.,4.8,,0,1.,4.8,2.,4.8
1979-07-29 18:22:14.990 ,2,0,,0,0.,4.8,0.,4.8,,0,0.,4.8,1.,4.8
1979-07-29 18:22:19.790 ,2,0,,0,0.,4.8,0.,4.8,,0,0.,4.8,3.,4.8
1979-07-29 18:22:24.590 ,1,0,,0,0.,4.8,0.,4.8,,0,0.,4.8,0.,4.8
1979-07-29 18:22:29.390 ,1,0,,0,0.,4.8,0.,4.8,,0,0.,4.8,2.,4.8
1979-07-29 18:22:34.190 ,1,0,,0,0.,4.8,0.,4.8,,0,0.,4.8,0.,4.8
1979-07-29 18:22:38.990 ,1,0,,0,2.,4.8,0.,4.8,,0,0.,4.8,0.,4.8
1979-07-29 18:22:43.790 ,1,0,,0,4.,4.8,0.,4.8,,0,0.,4.8,0.,4.8
1979-07-29 18:22:48.590 ,1,0,,0,3.,4.8,0.,4.8,,0,0.,4.8,0.,4.8
1979-07-29 18:22:53.390 ,1,0,,0,5.,4.8,0.,4.8,,0,0.,4.8,1.,4.8
1979-07-29 18:22:58.190 ,1,0,,0,1.,4.8,0.,4.8,,0,0.,4.8,0.,4.8
1979-07-29 18:23:02.990 ,1,0,,0,0.,4.8,0.,4.8,,0,0.,4.8,0.,4.8
1979-07-29 18:23:07.790 ,1,0,,0,0.,4.8,0.,4.8,,0,0.,4.8,0.,4.8
1979-07-29 18:23:12.590 ,0,0,,0,0.,4.8,0.,4.8,,0,0.,4.8,0.,4.8
1979-07-29 18:23:17.390 ,0,0,,0,0.,4.8,0.,4.8,,0,0.,4.8,2.,4.8
1979-07-29 18:23:22.190 ,0,0,,0,2.,4.8,0.,4.8,,0,0.,4.8,0.,4.8
1979-07-29 18:23:26.990 ,0,0,,0,0.,4.8,0.,4.8,,0,0.,4.8,0.,4.8
1979-07-29 18:23:31.790 ,0,0,,0,1.,4.8,0.,4.8,,0,0.,4.8,0.,4.8
1979-07-29 18:23:36.590 ,0,0,,0,2.,4.8,1.,4.8,,0,0.,4.8,0.,4.8
1979-07-29 18:23:41.390 ,0,0,,0,4.,4.8,0.,4.8,,0,0.,4.8,1.,4.8
1979-07-29 18:23:46.190 ,0,0,,0,1.,4.8,0.,4.8,,0,0.,4.8,0.,4.8
1979-07-29 18:23:50.990 ,0,0,,0,0.,4.8,0.,4.8,,0,0.,4.8,4.,4.8
1979-07-29 18:23:55.790 ,0,0,,0,0.,4.8,0.,4.8,,0,0.,4.8,0.,4.8
1979-07-29 18:24:00.590 ,0,0,,0,0.,4.8,0.,4.8,,0,0.,4.8,0.,4.8
1979-07-29 18:24:05.390 ,0,0,,0,0.,4.8,0.,4.8,,0,0.,4.8,0.,4.8
1979-07-29 18:24:10.190 ,0,0,,0,1.,4.8,0.,4.8,,0,0.,4.8,0.,4.8
1979-07-29 18:24:14.990 ,0,0,,0,1.,4.8,0.,4.8,,0,0.,4.8,0.,4.8
1979-07-29 18:24:19.790 ,0,0,,0,1.,4.8,0.,4.8,,0,0.,4.8,0.,4.8
1979-07-29 18:24:24.590 ,0,0,,0,0.,4.8,0.,4.8,,0,0.,4.8,1.,4.8
1979-07-29 18:24:29.390 ,0,0,,0,2.,4.8,0.,4.8,,0,0.,4.8,1.,4.8
1979-07-29 18:24:34.190 ,0,0,,0,3.,4.8,0.,4.8,,0,0.,4.8,0.,4.8
1979-07-29 18:24:38.990 ,0,0,,0,0.,4.8,0.,4.8,,0,0.,4.8,0.,4.8
1979-07-29 18:24:43.790 ,0,0,,0,0.,4.8,0.,4.8,,0,0.,4.8,1.,4.8
1979-07-29 18:24:48.590 ,1,0,,0,0.,4.8,0.,4.8,,0,0.,4.8,1.,4.8
1979-07-29 18:24:53.390 ,1,0,,0,0.,4.8,0.,4.8,,0,0.,4.8,0.,4.8
1979-07-29 18:24:58.190 ,1,0,,0,0.,4.8,0.,4.8,,0,0.,4.8,0.,4.8
1979-07-29 18:25:02.990 ,1,0,,0,3.,4.8,0.,4.8,,0,0.,4.8,0.,4.8
1979-07-29 18:25:07.790 ,1,0,,0,2.,4.8,0.,4.8,,0,0.,4.8,0.,4.8
1979-07-29 18:25:12.590 ,1,0,,0,2.,4.8,0.,4.8,,0,0.,4.8,0.,4.8
1979-07-29 18:25:17.390 ,1,0,,0,3.,4.8,0.,4.8,,0,0.,4.8,0.,4.8
1979-07-29 18:25:22.190 ,1,0,,0,2.,4.8,0.,4.8,,0,0.,4.8,1.,4.8
1979-07-29 18:25:26.990 ,1,0,,0,0.,4.8,0.,4.8,,0,0.,4.8,0.,4.8
1979-07-29 18:25:31.790 ,1,0,,0,0.,4.8,0.,4.8,,0,0.,4.8,0.,4.8
1979-07-29 18:25:36.590 ,2,0,,0,0.,4.8,0.,4.8,,0,0.,4.8,0.,4.8
1979-07-29 18:25:41.390 ,2,0,,0,0.,4.8,0.,4.8,,0,0.,4.8,0.,4.8
1979-07-29 18:25:46.190 ,2,0,,0,1.,4.8,0.,4.8,,0,0.,4.8,3.,4.8
1979-07-29 18:25:50.990 ,2,0,,0,6.,4.8,0.,4.8,,0,0.,4.8,2.,4.8
1979-07-29 18:25:55.790 ,2,0,,0,4.,4.8,0.,4.8,,0,0.,4.8,2.,4.8
1979-07-29 18:26:00.590 ,2,0,,0,5.,4.8,0.,4.8,,0,0.,4.8,0.,4.8
1979-07-29 18:26:05.390 ,2,0,,0,7.,4.8,2.,4.8,,0,0.,4.8,1.,4.8
1979-07-29 18:26:10.190 ,2,0,,0,7.,4.8,0.,4.8,,0,1.,4.8,1.,4.8
1979-07-29 18:26:14.990 ,2,0,,0,0.,4.8,0.,4.8,,0,0.,4.8,1.,4.8
1979-07-29 18:26:19.790 ,2,0,,0,0.,4.8,0.,4.8,,0,0.,4.8,3.,4.8
1979-07-29 18:26:24.590 ,3,0,,0,0.,4.8,0.,4.8,,0,0.,4.8,4.,4.8
1979-07-29 18:26:29.390 ,3,0,,0,0.,4.8,0.,4.8,,0,0.,4.8,3.,4.8
1979-07-29 18:26:34.190 ,3,0,,0,0.,4.8,0.,4.8,,0,0.,4.8,2.,4.8
1979-07-29 18:26:38.990 ,3,0,,0,9.,4.8,1.,4.8,,0,0.,4.8,1.,4.8
1979-07-29 18:26:43.790 ,3,0,,0,2.,4.8,0.,4.8,,0,0.,4.8,4.,4.8
1979-07-29 18:26:48.590 ,3,0,,0,4.,4.8,1.,4.8,,0,0.,4.8,3.,4.8
1979-07-29 18:26:53.390 ,3,0,,0,13.,4.8,0.,4.8,,0,0.,4.8,0.,4.8
1979-07-29 18:26:58.190 ,3,0,,0,6.,4.8,1.,4.8,,0,0.,4.8,2.,4.8
1979-07-29 18:27:02.990 ,3,0,,0,0.,4.8,0.,4.8,,0,0.,4.8,3.,4.8
1979-07-29 18:27:07.790 ,3,0,,0,0.,4.8,0.,4.8,,0,0.,4.8,3.,4.8
1979-07-29 18:27:12.590 ,4,0,,0,0.,4.8,0.,4.8,,0,0.,4.8,2.,4.8
1979-07-29 18:27:17.390 ,4,0,,0,0.,4.8,0.,4.8,,0,0.,4.8,1.,4.8
1979-07-29 18:27:22.190 ,4,0,,0,3.,4.8,0.,4.8,,0,0.,4.8,2.,4.8
1979-07-29 18:27:26.990 ,4,0,,0,6.,4.8,1.,4.8,,0,0.,4.8,4.,4.8
1979-07-29 18:27:31.790 ,4,0,,0,13.,4.8,0.,4.8,,0,0.,4.8,2.,4.8
1979-07-29 18:27:36.590 ,4,0,,0,10.,4.8,0.,4.8,,0,0.,4.8,1.,4.8
1979-07-29 18:27:41.390 ,4,0,,0,13.,4.8,1.,4.8,,0,0.,4.8,4.,4.8
1979-07-29 18:27:46.190 ,4,0,,0,7.,4.8,1.,4.8,,0,1.,4.8,3.,4.8
1979-07-29 18:27:50.990 ,4,0,,0,0.,4.8,0.,4.8,,0,0.,4.8,7.,4.8
1979-07-29 18:27:55.790 ,4,0,,0,0.,4.8,0.,4.8,,0,0.,4.8,1.,4.8
1979-07-29 18:28:00.590 ,5,0,,0,0.,4.8,0.,4.8,,0,0.,4.8,3.,4.8
1979-07-29 18:28:05.390 ,5,0,,0,0.,4.8,0.,4.8,,0,0.,4.8,2.,4.8
1979-07-29 18:28:10.190 ,5,0,,0,2.,4.8,0.,4.8,,0,0.,4.8,1.,4.8
1979-07-29 18:28:14.990 ,5,0,,0,12.,4.8,0.,4.8,,0,0.,4.8,1.,4.8
1979-07-29 18:28:19.790 ,5,0,,0,16.,4.8,2.,4.8,,0,0.,4.8,1.,4.8
1979-07-29 18:28:24.590 ,5,0,,0,7.,4.8,0.,4.8,,0,0.,4.8,1.,4.8
1979-07-29 18:28:29.390 ,5,0,,0,11.,4.8,2.,4.8,,0,0.,4.8,2.,4.8
1979-07-29 18:28:34.190 ,5,0,,0,7.,4.8,0.,4.8,,0,0.,4.8,2.,4.8
1979-07-29 18:28:38.990 ,5,0,,0,0.,4.8,0.,4.8,,0,0.,4.8,1.,4.8
1979-07-29 18:28:43.790 ,5,0,,0,0.,4.8,0.,4.8,,0,0.,4.8,3.,4.8
1979-07-29 18:28:48.590 ,6,0,,0,0.,4.8,0.,4.8,,0,0.,4.8,4.,4.8
1979-07-29 18:28:53.390 ,6,0,,0,0.,4.8,0.,4.8,,0,0.,4.8,2.,4.8
1979-07-29 18:28:58.190 ,6,0,,0,2.,4.8,0.,4.8,,0,0.,4.8,2.,4.8
1979-07-29 18:29:02.990 ,6,0,,0,9.,4.8,1.,4.8,,0,0.,4.8,4.,4.8
1979-07-29 18:29:07.790 ,6,0,,0,9.,4.8,1.,4.8,,0,0.,4.8,2.,4.8
1979-07-29 18:29:12.590 ,6,0,,0,5.,4.8,1.,4.8,,0,0.,4.8,1.,4.8
1979-07-29 18:29:17.390 ,6,0,,0,9.,4.8,2.,4.8,,0,0.,4.8,4.,4.8
1979-07-29 18:29:22.190 ,6,0,,0,9.,4.8,1.,4.8,,0,0.,4.8,5.,4.8
1979-07-29 18:29:26.990 ,6,0,,0,0.,4.8,0.,4.8,,0,0.,4.8,3.,4.8
1979-07-29 18:29:31.790 ,6,0,,0,0.,4.8,0.,4.8,,0,0.,4.8,0.,4.8
1979-07-29 18:29:36.590 ,7,0,,0,1.,4.8,0.,4.8,,0,0.,4.8,1.,4.8
1979-07-29 18:29:41.390 ,7,0,,0,0.,4.8,0.,4.8,,0,0.,4.8,1.,4.8
1979-07-29 18:29:46.190 ,7,0,,0,3.,4.8,0.,4.8,,0,0.,4.8,0.,4.8
1979-07-29 18:29:50.990 ,7,0,,0,9.,4.8,0.,4.8,,0,0.,4.8,0.,4.8
1979-07-29 18:29:55.790 ,7,0,,0,11.,4.8,0.,4.8,,0,0.,4.8,0.,4.8
1979-07-29 18:30:00.590 ,7,0,,0,8.,4.8,0.,4.8,,0,0.,4.8,1.,4.8
1979-07-29 18:30:05.390 ,7,0,,0,11.,4.8,0.,4.8,,0,0.,4.8,0.,4.8
1979-07-29 18:30:10.190 ,7,0,,0,13.,4.8,0.,4.8,,0,0.,4.8,0.,4.8